Weather History for Truckee-Tahoe, CA

Change the Weather History Date:

Thursday, January 30, 2014

  Actual Average Record
Temperature  
Mean Temperature 29 °F -  
Max Temperature 32 °F 39 °F 59 °F (1976)
Min Temperature 24 °F 12 °F -16 °F (2002)
Degree Days  
Heating Degree Days 36    
Moisture  
Dew Point 29 °F    
Average Humidity 94    
Maximum Humidity 100    
Minimum Humidity 75    
Precipitation  
Precipitation 0.18 in - - ()
Snow  
Snow 0.00 in - - ()
Snow Depth 4.00 in    
Sea Level Pressure  
Sea Level Pressure 29.87 in    
Wind  
Wind Speed 4 mph (NNE)    
Max Wind Speed 10 mph    
Max Gust Speed -    
Visibility 6 miles    
Events Snow    
Averages and records for this station are not official NWS values.
T = Trace of Precipitation, MM = Missing Value Source: NWS Daily Summary

Daily Weather History Graph

Daily Weather History Graph

Search for Another Location

Airport:

Trip Planner

Search our weather history database for the weather conditions in past years. The results will help you decide how hot, cold, wet, or windy it might be!

Date:

Astronomy

Jan. 30, 2014 Rise Set
Actual Time 7:09 AM PST 5:18 PM PST
Civil Twilight 6:40 AM PST 5:47 PM PST
Nautical Twilight 6:08 AM PST 6:19 PM PST
Astronomical Twilight 5:37 AM PST 6:51 PM PST
Moon 6:39 AM PST (1/30) 5:36 PM PST (1/30)
Length of Visible Light 11h 06m
Length of Day
10h 09m
Waning Crescent, 0% of the Moon is Illuminated
Jan 30
Waning Crescent
Jan 30
New
Feb 6
First Quarter
Feb 14
Full
Feb 22
Last Quarter

Hourly Weather History & Observations

Time (PST) Temp. Windchill Dew Point Humidity Pressure Visibility Wind Dir Wind Speed Gust Speed Precip Events Conditions
12:15 AM 32.0 °F 23.6 °F 32.0 °F 100% 29.97 in 1.5 mi North 10.4 mph - 0.01 in Snow Light Snow
12:35 AM 32.0 °F 26.4 °F 32.0 °F 100% 29.97 in 1.2 mi NNE 5.8 mph - 0.03 in Snow Light Snow
12:55 AM 32.0 °F 24.2 °F 32.0 °F 100% 29.96 in 1.2 mi NE 9.2 mph - 0.05 in Snow Light Snow
1:15 AM 32.0 °F 26.4 °F 32.0 °F 100% 29.96 in 1.2 mi NE 5.8 mph - 0.01 in Snow Light Snow
1:35 AM 32.0 °F 26.4 °F 32.0 °F 100% 29.95 in 1.5 mi ENE 5.8 mph - 0.02 in Snow Light Snow
1:55 AM 32.0 °F 27.5 °F 32.0 °F 100% 29.94 in 1.2 mi ENE 4.6 mph - 0.04 in Snow Light Snow
2:15 AM 32.0 °F 28.7 °F 32.0 °F 100% 29.94 in 1.0 mi ENE 3.5 mph - 0.01 in Snow Snow
2:35 AM 32.0 °F 28.7 °F 30.2 °F 93% 29.94 in 1.0 mi NE 3.5 mph - 0.03 in Snow Snow
2:55 AM 32.0 °F 26.4 °F 30.2 °F 93% 29.94 in 1.2 mi North 5.8 mph - 0.05 in Snow Light Snow
3:15 AM 30.2 °F 26.7 °F 30.2 °F 100% 29.94 in 1.0 mi NE 3.5 mph - 0.02 in Snow Snow
3:35 AM 30.2 °F - 30.2 °F 100% 29.92 in 1.5 mi Calm Calm - 0.03 in Snow Light Snow
3:55 AM 30.2 °F - 30.2 °F 100% 29.92 in 1.5 mi Calm Calm - 0.03 in Snow Light Snow
4:15 AM 30.2 °F - 30.2 °F 100% 29.91 in 1.8 mi Calm Calm - 0.01 in Snow Light Snow
4:35 AM 30.2 °F - 30.2 °F 100% 29.90 in 1.8 mi Calm Calm - 0.01 in Snow Light Snow
4:55 AM 30.2 °F - 30.2 °F 100% 29.89 in 2.5 mi Calm Calm - 0.01 in Snow Light Snow
5:15 AM 30.2 °F - 30.2 °F 100% 29.89 in 4.0 mi Calm Calm - N/A Snow Light Snow
5:35 AM 30.2 °F - 30.2 °F 100% 29.88 in 7.0 mi Calm Calm - N/A Snow Light Snow
6:55 AM 28.4 °F - 28.4 °F 100% 29.86 in 0.5 mi Calm Calm - N/A Snow Snow
7:55 AM 28.4 °F - 28.4 °F 100% 29.86 in 0.5 mi Calm Calm - N/A Snow Snow
8:45 AM 28.4 °F - 28.4 °F 100% 29.88 in 0.5 mi Calm Calm - N/A Snow Snow
4:55 PM 30.2 °F - 28.4 °F 93% 29.80 in 10.0 mi Calm Calm - N/A   Mostly Cloudy
5:15 PM 32.0 °F 27.5 °F 30.2 °F 93% 29.80 in 10.0 mi West 4.6 mph - N/A   Overcast
5:35 PM 32.0 °F 28.7 °F 30.2 °F 93% 29.80 in 10.0 mi SE 3.5 mph - N/A   Overcast
5:55 PM 32.0 °F 28.7 °F 30.2 °F 93% 29.80 in 10.0 mi East 3.5 mph - N/A   Overcast
6:15 PM 32.0 °F 26.4 °F 30.2 °F 93% 29.80 in 10.0 mi West 5.8 mph - N/A Snow Light Snow
6:35 PM 32.0 °F 28.7 °F 28.4 °F 87% 29.80 in 10.0 mi West 3.5 mph - N/A   Overcast
6:55 PM 32.0 °F - 28.4 °F 87% 29.80 in 10.0 mi Calm Calm - N/A   Overcast
7:15 PM 32.0 °F - 28.4 °F 87% 29.81 in 10.0 mi Calm Calm - N/A   Overcast
7:35 PM 32.0 °F 27.5 °F 26.6 °F 80% 29.82 in 10.0 mi West 4.6 mph - N/A   Overcast
7:55 PM 32.0 °F - 24.8 °F 75% 29.82 in 10.0 mi Calm Calm - N/A   Overcast
8:15 PM 32.0 °F - 24.8 °F 75% 29.82 in 10.0 mi Calm Calm - N/A   Overcast
8:35 PM 32.0 °F 28.7 °F 24.8 °F 75% 29.83 in 10.0 mi NW 3.5 mph - N/A   Overcast
8:55 PM 30.2 °F 25.4 °F 24.8 °F 80% 29.84 in 7.0 mi WNW 4.6 mph - N/A Snow Light Snow
9:15 PM 28.4 °F - 26.6 °F 93% 29.84 in 2.0 mi Calm Calm - N/A Snow Light Snow
9:35 PM 28.4 °F 22.2 °F 26.6 °F 93% 29.84 in 4.0 mi East 5.8 mph - N/A Snow Light Snow
9:55 PM 28.4 °F 24.6 °F 26.6 °F 93% 29.83 in 5.0 mi ENE 3.5 mph - N/A Snow Light Snow
10:15 PM 28.4 °F - 26.6 °F 93% 29.83 in 10.0 mi Calm Calm - N/A   Overcast
10:35 PM 26.6 °F - 26.6 °F 100% 29.83 in 10.0 mi Calm Calm - N/A   Overcast
10:55 PM 28.4 °F - 26.6 °F 93% 29.83 in 10.0 mi Calm Calm - N/A   Overcast
11:15 PM 26.6 °F - 26.6 °F 100% 29.83 in 10.0 mi Calm Calm - N/A   Overcast
11:35 PM 26.6 °F - 24.8 °F 93% 29.83 in 10.0 mi Calm Calm - N/A   Overcast
11:55 PM 24.8 °F - 23.0 °F 93% 29.82 in 10.0 mi Calm Calm - N/A   Overcast